ITASAT

Last updated on Tue Jan 14 2025 00:03:00 GMT+0000 (Coordinated Universal Time)

1 43786U 18099AE 25013.57512063 .00008221 00000+0 51263-3 0 9997 2 43786 97.4809 71.3086 0015334 358.2922 1.8252 15.09686757334258
UTC large
Height (km)
Speed (km/s)
/
Latitude / Longitude
Inclination (degrees)
Orbital Period (minutes)
Azimuth
Elevation
Range (km)
Doppler Factor

Next 0 passes for location: London (51.5072 / 0.1276)

Sorry there are no passes over London.